Content
SEND FEEDBACK

Daily
Averages
Monthly
Summary
Spain

ZARAGOZA, SPAIN


Home > Europe > Spain
Elevation: 846 feet     Latitude: 41 40N     Longitude: 001 01W

WEATHER
 
SELECT A DAY
Number of Records: 318,309;   Date Range: 7/1/96 - 9/30/14
 
SHARE

PRINT THIS DATA

[ ← Previous Day ]
WEATHER ALMANAC - APRIL 29, 2013
[ Next Day → ]
[ °C ]   °F
Weather ElementAverageHighLow
Temperature44.7 °F48.2 °F (3:00 pm)42.8 °F (12:30 am)
Dewpoint43.2 °F47 °F (2:00 pm)41 °F (12:30 am)
Humidity94.3 %100 % (5:00 am)87 % (3:00 pm)
Barometer29.87 in29.92 in (12:18 pm)29.83 in (5:30 am)
Wind Speed14.8 mph20.7 mph (9:30 pm)
Wind Gust32.2 mph (9:30 pm)
Weather ElementAverage
Visibility3.3 mi
Wind DirectionWNW (302.3 °)

Weather ElementTotal
Precipitation---
Heating Degree Days19.5 (Base 65)
Averaged from 53 records on April 29, 2013
WEATHER CONDITIONS BREAKOUT
WIND DIRECTION BREAKOUT
WEATHER BY HOUR - APRIL 29, 2013
[ °C ]   °F
Local TimeTemperatureDewpointHumidityBarometerVisibilityWind DirectionWind SpeedGust SpeedPrecipitationEventsConditions
12:30 AM42.8 °F41.0 °F93 %29.89 in5.0 miNW (310°)12.7 mphScattered Clouds
1:00 AM42.8 °F41.0 °F93 %29.89 in5.0 miWNW (300°)11.5 mphRainLight Rain
1:30 AM42.8 °F41.0 °F93 %29.89 in5.0 miWNW (300°)11.5 mphRainLight Rain
2:00 AM44.0 °F43.0 °F96 %29.91 in5.0 miWNW (300°)11.5 mphRainLight Rain
2:00 AM42.8 °F41.0 °F93 %29.89 in5.0 miNW (310°)12.7 mphRainLight Rain
2:30 AM42.8 °F41.0 °F93 %29.89 in5.0 miWNW (300°)12.7 mphRainLight Rain
3:00 AM42.8 °F41.0 °F93 %29.89 in5.0 miWNW (300°)12.7 mphRainLight Rain
3:30 AM42.8 °F41.0 °F93 %29.86 in4.3 miWNW (300°)13.8 mphRainLight Rain
4:00 AM42.8 °F41.0 °F93 %29.86 in4.3 miNW (310°)12.7 mphRainLight Rain
4:30 AM42.8 °F41.0 °F93 %29.86 in4.3 miNW (310°)16.1 mphRainLight Rain
5:00 AM42.8 °F42.8 °F100 %29.86 in4.3 miNW (310°)13.8 mphRainLight Rain
5:30 AM42.8 °F42.8 °F100 %29.83 in4.3 miNW (310°)15.0 mphMostly Cloudy
6:00 AM42.8 °F42.8 °F100 %29.86 in4.3 miNW (310°)12.7 mphRainLight Rain
6:30 AM42.8 °F42.8 °F100 %29.86 in4.3 miNW (310°)12.7 mphRainLight Rain
7:00 AM42.8 °F42.8 °F100 %29.86 in3.1 miNW (310°)11.5 mphRainRain
7:30 AM42.8 °F42.8 °F100 %29.86 in1.9 miNW (310°)11.5 mphRainRain
8:00 AM44.0 °F44.0 °F100 %29.88 in2.0 miWNW (300°)11.5 mphRainLight Rain
8:00 AM42.8 °F42.8 °F100 %29.86 in1.8 miNW (310°)10.4 mphRainLight Rain
8:30 AM42.8 °F42.8 °F100 %29.86 in1.8 miNW (310°)11.5 mphRainLight Rain
9:00 AM42.8 °F42.8 °F100 %29.89 in1.8 miNW (310°)11.5 mphRainLight Rain
9:30 AM44.6 °F42.8 °F93 %29.89 in1.8 miNW (310°)13.8 mphRainLight Rain
10:00 AM44.6 °F42.8 °F93 %29.89 in1.8 miNW (310°)12.7 mphRainLight Rain
10:30 AM44.6 °F42.8 °F93 %29.89 in1.0 miNW (310°)11.5 mphRainLight Rain
10:38 AM44.6 °F42.8 °F93 %29.89 in0.7 miNW (310°)12.7 mphRainLight Rain
11:00 AM44.6 °F42.8 °F93 %29.89 in0.7 miNW (310°)11.5 mphRainLight Rain
11:30 AM44.6 °F42.8 °F93 %29.89 in1.0 miWNW (300°)11.5 mphRainRain
12:00 PM44.6 °F44.6 °F100 %29.89 in2.8 miWNW (300°)15.0 mphLight Drizzle
12:18 PM44.6 °F44.6 °F100 %29.92 in0.9 miWNW (300°)13.8 mphLight Drizzle
12:30 PM44.6 °F44.6 °F100 %29.89 in0.9 miWNW (300°)13.8 mphLight Drizzle
1:00 PM44.6 °F44.6 °F100 %29.89 in1.2 miWNW (300°)15.0 mphLight Drizzle
1:30 PM46.4 °F44.6 °F93 %29.89 in1.9 miWNW (300°)15.0 mphRainLight Rain
2:00 PM47.0 °F47.0 °F100 %29.92 in1.0 miWNW (290°)16.1 mphRainLight Rain
2:00 PM46.4 °F44.6 °F93 %29.89 in1.2 miWNW (300°)16.1 mphRainLight Rain
2:30 PM46.4 °F44.6 °F93 %29.89 in1.8 miWNW (300°)15.0 mphRainRain
3:00 PM48.2 °F44.6 °F87 %29.89 in2.5 miWNW (300°)15.0 mphRainRain
3:30 PM48.2 °F44.6 °F87 %29.86 inWNW (300°)17.3 mphRainRain
4:00 PM48.2 °F44.6 °F87 %29.86 inWNW (300°)18.4 mphRainRain
4:30 PM46.4 °F44.6 °F93 %29.86 inWNW (290°)19.6 mph31.1 mphRainRain
5:00 PM46.4 °F44.6 °F93 %29.86 in1.9 miWNW (290°)16.1 mphRainRain
5:30 PM46.4 °F44.6 °F93 %29.83 in1.9 miWNW (290°)18.4 mphRainRain
6:00 PM46.4 °F44.6 °F93 %29.83 in2.8 miWNW (290°)16.1 mphRainRain
6:30 PM46.4 °F44.6 °F93 %29.83 in2.8 miWNW (300°)19.6 mphRainRain
7:00 PM46.4 °F44.6 °F93 %29.86 in3.1 miWNW (300°)18.4 mphRainLight Rain
7:30 PM46.4 °F44.6 °F93 %29.86 in3.1 miWNW (300°)17.3 mphRainLight Rain
8:00 PM47.0 °F46.0 °F97 %29.87 in6.0 miWNW (290°)17.3 mphRainRain
8:00 PM46.4 °F44.6 °F93 %29.86 in5.6 miWNW (300°)17.3 mphRainLight Rain
8:30 PM44.6 °F42.8 °F93 %29.86 in5.6 miWNW (300°)19.6 mphMostly Cloudy
9:00 PM44.6 °F42.8 °F93 %29.86 in5.6 miWNW (300°)17.3 mphMostly Cloudy
9:30 PM46.4 °F42.8 °F87 %29.86 in5.6 miWNW (300°)20.7 mph32.2 mphMostly Cloudy
10:00 PM44.6 °F42.8 °F93 %29.86 in5.6 miWNW (300°)20.7 mphScattered Clouds
10:30 PM44.6 °F41.0 °F87 %29.89 in5.6 miWNW (300°)18.4 mphRainLight Rain
11:00 PM44.6 °F41.0 °F87 %29.89 in5.6 miWNW (300°)18.4 mphScattered Clouds
11:30 PM44.6 °F41.0 °F87 %29.89 in5.6 miWNW (300°)16.1 mphRainLight Rain
Hourly data recorded from LEZG, located miles away from Zaragoza, Spain







STORIES FROM OUR PARTNERS